Total_Precipitation_Accumulation
1.62 1.70 1.66 1.60 1.61 1.63 1.54 1.46 1.43 1.43 1.42 1.49 1.56 1.70 1.86 2.08 2.29 2.44 2.43 2.36 2.34 2.29 2.21 2.33 2.48 2.54 2.65 2.70 2.74 2.66 2.55 2.51 2.40 2.12 1.91 1.83 2.06 2.12 2.07 1.97 1.80 1.74 1.72
1.48 1.59 1.67 1.58 1.54 1.54 1.45 1.49 1.40 1.33 1.34 1.34 1.48 1.68 1.80 1.89 1.97 2.06 2.12 2.15 2.17 2.18 2.12 2.08 2.15 2.24 2.36 2.53 2.65 2.63 2.65 2.56 2.49 2.42 2.19 1.95 1.88 1.98 2.07 2.19 2.06 1.82 1.77
1.62 1.74 1.74 1.64 1.58 1.55 1.40 1.47 1.41 1.35 1.34 1.32 1.38 1.53 1.63 1.73 1.79 1.84 1.96 2.06 2.07 1.99 1.97 1.86 1.83 1.94 2.07 2.22 2.30 2.42 2.57 2.62 2.64 2.58 2.47 2.24 1.98 1.99 2.09 2.16 2.17 2.23 1.97
1.81 1.88 1.77 1.68 1.62 1.57 1.44 1.37 1.36 1.37 1.35 1.37 1.48 1.53 1.58 1.60 1.73 1.79 1.86 1.86 1.82 1.72 1.69 1.61 1.59 1.62 1.75 1.93 2.05 2.27 2.50 2.63 2.69 2.67 2.61 2.34 2.12 2.07 2.06 2.13 2.26 2.32 2.26
1.70 1.72 1.72 1.60 1.48 1.43 1.47 1.30 1.30 1.39 1.39 1.43 1.49 1.56 1.59 1.59 1.66 1.76 1.71 1.61 1.60 1.58 1.51 1.33 1.28 1.35 1.40 1.54 1.55 1.83 2.13 2.39 2.50 2.55 2.54 2.36 2.11 2.01 1.86 1.93 2.10 2.29 2.33
1.55 1.53 1.50 1.44 1.45 1.41 1.35 1.29 1.27 1.29 1.33 1.36 1.36 1.51 1.61 1.50 1.71 1.73 1.54 1.36 1.33 1.39 1.37 1.23 1.16 1.19 1.14 1.17 1.21 1.46 1.77 1.96 2.11 2.28 2.35 2.21 2.02 1.92 1.96 1.96 1.98 2.03 2.06
1.34 1.31 1.22 1.19 1.22 1.26 1.25 1.27 1.29 1.28 1.29 1.32 1.26 1.35 1.40 1.51 1.59 1.41 1.40 1.29 1.28 1.28 1.30 1.32 1.20 1.11 1.23 1.11 1.09 1.19 1.28 1.43 1.59 1.84 2.03 2.00 2.10 2.01 1.90 1.81 1.82 1.85 1.87
1.22 1.21 1.16 1.11 1.08 1.10 1.14 1.21 1.30 1.25 1.22 1.25 1.23 1.17 1.22 1.37 1.39 1.23 1.30 1.20 1.29 1.33 1.35 1.44 1.43 1.32 1.30 1.39 1.31 1.29 1.23 1.18 1.32 1.23 1.39 1.77 1.94 2.02 1.97 1.98 2.07 1.98 1.81
0.94 0.99 0.98 0.93 0.98 1.07 1.06 1.20 1.30 1.21 1.20 1.16 1.17 1.13 1.14 1.20 1.22 1.13 1.16 1.16 1.30 1.30 1.24 1.39 1.46 1.36 1.49 1.62 1.65 1.64 1.53 1.34 1.49 1.52 1.41 1.52 1.71 1.79 1.89 1.94 1.97 1.90 1.82
0.73 0.75 0.81 0.83 0.88 0.97 1.07 1.18 1.23 1.20 1.20 1.13 1.11 1.06 1.03 1.02 1.12 1.01 1.10 1.16 1.24 1.27 1.27 1.31 1.53 1.45 1.46 1.46 1.48 1.59 1.54 1.35 1.21 1.22 1.21 1.13 1.08 1.21 1.46 1.56 1.81 1.94 1.89
0.68 0.69 0.73 0.76 0.82 0.95 1.07 1.04 1.00 1.03 1.08 1.08 1.10 1.03 0.98 1.03 1.13 1.13 1.17 1.15 1.22 1.26 1.36 1.39 1.38 1.55 1.41 1.35 1.33 1.28 1.38 1.38 1.36 1.39 1.43 1.30 1.20 1.17 1.19 1.25 1.47 1.73 1.89
0.59 0.63 0.62 0.63 0.68 0.76 0.84 0.93 0.93 0.93 0.97 0.95 0.95 0.95 0.91 0.98 1.05 1.05 1.07 1.10 1.19 1.15 1.19 1.20 1.18 1.34 1.20 1.15 1.08 1.12 1.24 1.30 1.36 1.50 1.48 1.40 1.35 1.29 1.26 1.28 1.35 1.46 1.55
0.60 0.62 0.59 0.58 0.60 0.66 0.74 0.85 0.93 0.96 0.94 0.91 0.83 0.80 0.79 0.81 0.88 0.93 0.89 0.88 0.94 0.95 0.93 1.10 1.13 1.12 1.05 0.97 1.03 1.08 1.11 1.13 1.24 1.35 1.35 1.27 1.26 1.32 1.34 1.32 1.35 1.40 1.38
0.57 0.63 0.63 0.64 0.66 0.68 0.70 0.76 0.89 0.95 0.87 0.79 0.79 0.79 0.81 0.81 0.77 0.77 0.79 0.77 0.78 0.86 0.86 0.96 1.01 0.96 0.94 0.94 0.98 1.02 1.04 1.10 1.19 1.21 1.21 1.22 1.22 1.29 1.38 1.36 1.36 1.44 1.50
0.55 0.60 0.60 0.64 0.68 0.68 0.64 0.63 0.71 0.78 0.83 0.85 0.84 0.84 0.87 0.87 0.80 0.75 0.71 0.74 0.79 0.89 0.97 0.94 0.93 0.91 0.89 0.95 0.97 0.97 1.03 1.09 1.10 1.07 1.13 1.17 1.18 1.23 1.26 1.26 1.31 1.36 1.39
0.55 0.59 0.60 0.62 0.68 0.67 0.64 0.64 0.66 0.67 0.76 0.77 0.77 0.79 0.72 0.69 0.71 0.67 0.64 0.69 0.78 0.88 1.02 1.07 1.09 1.12 1.13 1.12 1.08 0.99 0.95 0.99 1.06 1.12 1.17 1.19 1.20 1.19 1.22 1.23 1.26 1.34 1.35
0.63 0.65 0.66 0.65 0.64 0.63 0.67 0.70 0.67 0.63 0.62 0.63 0.64 0.63 0.63 0.66 0.63 0.63 0.64 0.68 0.74 0.82 0.97 1.13 1.15 1.12 1.08 1.05 1.01 0.96 0.90 0.87 0.91 1.03 1.16 1.27 1.27 1.26 1.29 1.33 1.32 1.28 1.26
0.77 0.84 0.78 0.71 0.68 0.64 0.66 0.72 0.73 0.73 0.68 0.59 0.59 0.62 0.62 0.63 0.64 0.67 0.77 0.86 0.82 0.82 0.90 0.99 1.01 1.00 0.95 0.90 0.85 0.81 0.83 0.83 0.85 0.90 0.94 1.04 1.20 1.30 1.37 1.40 1.44 1.47 1.46
0.74 0.82 0.83 0.80 0.77 0.74 0.75 0.82 0.81 0.71 0.64 0.63 0.60 0.62 0.65 0.67 0.69 0.70 0.75 0.77 0.76 0.77 0.79 0.80 0.78 0.77 0.78 0.77 0.76 0.79 0.84 0.83 0.84 0.87 0.87 0.89 1.00 1.16 1.32 1.42 1.47 1.57 1.54
0.61 0.72 0.82 0.84 0.83 0.82 0.86 0.87 0.84 0.76 0.65 0.63 0.61 0.61 0.63 0.63 0.61 0.62 0.62 0.66 0.72 0.73 0.73 0.73 0.76 0.75 0.72 0.72 0.75 0.79 0.86 0.89 0.86 0.88 0.93 0.96 1.04 1.11 1.16 1.26 1.43 1.48 1.40
0.56 0.60 0.69 0.73 0.74 0.75 0.79 0.83 0.85 0.82 0.75 0.70 0.67 0.66 0.68 0.64 0.64 0.62 0.62 0.65 0.68 0.70 0.70 0.71 0.75 0.76 0.75 0.79 0.79 0.81 0.86 0.90 0.90 0.90 0.91 0.98 1.05 1.14 1.19 1.22 1.26 1.31 1.36
0.59 0.59 0.62 0.66 0.68 0.70 0.73 0.74 0.78 0.81 0.80 0.76 0.75 0.77 0.82 0.71 0.68 0.68 0.69 0.70 0.71 0.71 0.72 0.78 0.82 0.80 0.77 0.80 0.85 0.87 0.90 0.90 0.90 0.94 1.00 1.04 1.08 1.12 1.20 1.28 1.29 1.29 1.33
0.58 0.58 0.59 0.65 0.68 0.73 0.74 0.70 0.72 0.73 0.73 0.71 0.70 0.74 0.75 0.71 0.71 0.72 0.75 0.76 0.76 0.77 0.80 0.87 0.90 0.88 0.86 0.86 0.89 0.90 0.92 0.93 0.95 0.98 1.05 1.09 1.09 1.10 1.15 1.22 1.22 1.25 1.28
0.62 0.63 0.66 0.71 0.70 0.69 0.72 0.73 0.73 0.72 0.73 0.72 0.73 0.77 0.78 0.76 0.77 0.75 0.76 0.76 0.75 0.75 0.77 0.82 0.89 0.91 0.93 0.95 0.96 0.94 0.94 1.00 0.99 0.99 1.08 1.19 1.19 1.16 1.18 1.23 1.23 1.25 1.34
0.70 0.70 0.73 0.77 0.79 0.78 0.79 0.79 0.79 0.80 0.81 0.82 0.84 0.85 0.83 0.82 0.80 0.78 0.77 0.77 0.79 0.78 0.78 0.79 0.85 0.91 0.96 1.01 1.00 0.97 1.09 1.14 1.10 1.02 1.01 1.12 1.17 1.20 1.26 1.31 1.36 1.44 1.55
0.75 0.77 0.80 0.81 0.82 0.85 0.89 0.89 0.86 0.88 0.88 0.88 0.89 0.91 0.91 0.92 0.90 0.89 0.87 0.83 0.81 0.78 0.79 0.83 0.87 0.89 0.92 0.99 1.07 1.15 1.17 1.07 1.07 1.14 1.08 1.09 1.15 1.20 1.33 1.44 1.48 1.60 1.68